User: anonymous   Login
Location: Carrer del Canonge
(41.4901°N, 2.2931°E)
Time: 20:08:28
(UTC+00:00)
Language:

Meteor 2-13 Rocket - Orbit

View from above orbital plane
View from above orbital plane
View from above satellite
View from above satellite

Ground track
Ground track

The orbit data is extracted from the following two-line orbital elements,

1 16409U 85119B   20333.04067760  .00000014  00000-0 -67738-6 0  9998
2 16409  82.5385  76.5131 0016209  89.1934 271.1084 13.84814452765199
Epoch (UTC): 28 November 2020 00:58:34
Eccentricity: 0.0016209
inclination: 82.5385°
perigee height: 935 km
apogee height: 959 km
right ascension of ascending node: 76.5131°
argument of perigee: 89.1934°
revolutions per day: 13.84814452
mean anomaly at epoch: 271.1084°
orbit number at epoch: 76519

The dashed part of the orbit path shows where the satellite is in the earth's shadow,  

DLR